Total_Precipitation_Accumulation
0.00 0.00 0.00 0.00 0.01 0.02 0.05 0.06 0.01 0.00 0.00 0.00 0.00 0.00 0.00 0.00 0.00 0.00 0.00 0.00 0.00 0.00 0.01 0.02 0.02 0.01 0.00 0.01 0.03 0.04 0.03 0.02 0.03 0.06 0.09 0.11 0.13 0.10 0.06 0.04 0.02 0.01 0.01 0.01 0.01 0.01 0.02 0.02 0.02
0.00 0.00 0.00 0.00 0.00 0.01 0.06 0.06 0.02 0.02 0.01 0.00 0.00 0.00 0.00 0.00 0.00 0.00 0.00 0.00 0.00 0.00 0.00 0.01 0.01 0.01 0.00 0.01 0.02 0.04 0.04 0.03 0.04 0.09 0.10 0.09 0.10 0.09 0.07 0.06 0.04 0.04 0.02 0.01 0.01 0.01 0.01 0.01 0.00
0.00 0.00 0.00 0.00 0.00 0.02 0.05 0.06 0.03 0.02 0.02 0.01 0.00 0.00 0.00 0.00 0.00 0.00 0.00 0.00 0.00 0.00 0.00 0.00 0.01 0.01 0.01 0.01 0.02 0.04 0.06 0.05 0.06 0.09 0.10 0.07 0.08 0.09 0.08 0.09 0.10 0.07 0.04 0.02 0.01 0.01 0.01 0.01 0.01
0.00 0.00 0.00 0.00 0.00 0.01 0.02 0.02 0.01 0.01 0.00 0.01 0.00 0.00 0.00 0.00 0.00 0.00 0.00 0.00 0.00 0.00 0.00 0.00 0.01 0.01 0.00 0.01 0.01 0.03 0.05 0.06 0.07 0.09 0.09 0.09 0.11 0.10 0.06 0.09 0.10 0.07 0.04 0.02 0.04 0.03 0.03 0.02 0.01
0.00 0.00 0.00 0.00 0.00 0.01 0.01 0.01 0.01 0.01 0.01 0.00 0.00 0.00 0.00 0.00 0.00 0.00 0.00 0.00 0.00 0.00 0.00 0.01 0.01 0.01 0.00 0.00 0.01 0.01 0.02 0.03 0.04 0.08 0.10 0.09 0.09 0.10 0.08 0.06 0.05 0.03 0.02 0.02 0.07 0.10 0.09 0.06 0.04
0.00 0.00 0.00 0.00 0.00 0.00 0.01 0.01 0.01 0.04 0.01 0.01 0.01 0.00 0.00 0.00 0.00 0.00 0.00 0.00 0.00 0.00 0.01 0.01 0.01 0.01 0.01 0.00 0.00 0.01 0.01 0.01 0.02 0.04 0.06 0.04 0.02 0.02 0.02 0.03 0.03 0.01 0.02 0.05 0.07 0.08 0.11 0.13 0.10
0.00 0.00 0.00 0.00 0.00 0.00 0.01 0.02 0.02 0.03 0.01 0.00 0.00 0.00 0.00 0.00 0.00 0.00 0.00 0.00 0.00 0.00 0.00 0.01 0.01 0.01 0.01 0.01 0.01 0.01 0.01 0.01 0.01 0.01 0.01 0.01 0.00 0.00 0.00 0.01 0.01 0.00 0.01 0.03 0.04 0.04 0.05 0.09 0.10
0.00 0.00 0.00 0.00 0.00 0.00 0.01 0.02 0.02 0.02 0.00 0.00 0.00 0.00 0.00 0.00 0.00 0.00 0.00 0.00 0.00 0.00 0.00 0.00 0.00 0.01 0.01 0.01 0.01 0.01 0.01 0.01 0.00 0.00 0.00 0.00 0.00 0.00 0.00 0.01 0.02 0.01 0.00 0.00 0.01 0.01 0.03 0.07 0.08
0.00 0.00 0.00 0.00 0.00 0.00 0.01 0.03 0.03 0.02 0.02 0.01 0.00 0.00 0.00 0.00 0.00 0.00 0.01 0.01 0.01 0.01 0.01 0.00 0.00 0.01 0.01 0.01 0.00 0.00 0.00 0.00 0.00 0.00 0.00 0.00 0.00 0.01 0.02 0.02 0.05 0.03 0.02 0.01 0.01 0.01 0.02 0.04 0.06
0.00 0.00 0.00 0.00 0.00 0.00 0.01 0.03 0.03 0.02 0.02 0.01 0.00 0.00 0.00 0.00 0.00 0.00 0.00 0.00 0.01 0.00 0.00 0.00 0.00 0.00 0.00 0.00 0.00 0.00 0.00 0.00 0.00 0.02 0.02 0.01 0.01 0.01 0.02 0.02 0.08 0.14 0.14 0.10 0.11 0.11 0.09 0.09 0.07
0.00 0.00 0.00 0.00 0.00 0.00 0.00 0.01 0.02 0.02 0.01 0.00 0.00 0.00 0.00 0.00 0.00 0.00 0.00 0.00 0.00 0.00 0.00 0.00 0.00 0.00 0.00 0.00 0.00 0.00 0.00 0.00 0.00 0.00 0.01 0.01 0.01 0.01 0.01 0.04 0.07 0.12 0.13 0.21 0.30 0.24 0.18 0.20 0.18
0.00 0.00 0.00 0.00 0.00 0.00 0.00 0.00 0.01 0.02 0.01 0.01 0.00 0.00 0.00 0.00 0.00 0.00 0.00 0.00 0.00 0.00 0.00 0.00 0.00 0.00 0.00 0.00 0.00 0.00 0.00 0.00 0.00 0.00 0.00 0.00 0.01 0.02 0.06 0.12 0.13 0.17 0.14 0.19 0.18 0.19 0.11 0.07 0.06
0.00 0.00 0.00 0.00 0.00 0.00 0.00 0.00 0.00 0.01 0.02 0.01 0.01 0.01 0.01 0.00 0.00 0.00 0.00 0.00 0.00 0.00 0.00 0.00 0.00 0.00 0.00 0.00 0.00 0.00 0.00 0.00 0.00 0.00 0.00 0.00 0.01 0.04 0.11 0.14 0.16 0.10 0.11 0.12 0.11 0.09 0.10 0.09 0.07
0.00 0.00 0.00 0.00 0.00 0.00 0.00 0.00 0.00 0.00 0.01 0.01 0.01 0.01 0.01 0.00 0.00 0.00 0.00 0.00 0.00 0.00 0.00 0.00 0.00 0.00 0.01 0.01 0.00 0.00 0.00 0.00 0.00 0.00 0.00 0.00 0.01 0.08 0.13 0.16 0.18 0.12 0.12 0.16 0.18 0.14 0.21 0.14 0.09
0.00 0.00 0.00 0.00 0.00 0.00 0.00 0.00 0.00 0.00 0.00 0.01 0.01 0.01 0.02 0.01 0.00 0.00 0.00 0.00 0.00 0.00 0.00 0.00 0.00 0.00 0.01 0.01 0.01 0.00 0.00 0.00 0.00 0.00 0.01 0.02 0.05 0.14 0.15 0.16 0.17 0.19 0.17 0.23 0.24 0.22 0.21 0.14 0.10
0.00 0.00 0.00 0.00 0.00 0.00 0.00 0.00 0.00 0.00 0.00 0.00 0.01 0.01 0.01 0.01 0.01 0.01 0.01 0.01 0.01 0.01 0.00 0.00 0.00 0.01 0.02 0.04 0.04 0.04 0.02 0.02 0.01 0.01 0.00 0.03 0.08 0.16 0.21 0.17 0.17 0.22 0.24 0.29 0.32 0.29 0.23 0.20 0.12
0.00 0.00 0.00 0.00 0.00 0.00 0.00 0.00 0.00 0.00 0.00 0.00 0.01 0.02 0.04 0.05 0.06 0.06 0.05 0.06 0.06 0.03 0.03 0.03 0.02 0.02 0.06 0.12 0.15 0.16 0.16 0.11 0.07 0.05 0.04 0.10 0.17 0.23 0.33 0.24 0.22 0.19 0.26 0.28 0.18 0.27 0.27 0.26 0.18
0.00 0.00 0.00 0.00 0.00 0.00 0.00 0.00 0.00 0.00 0.01 0.01 0.03 0.06 0.09 0.14 0.23 0.22 0.17 0.17 0.15 0.12 0.11 0.08 0.07 0.11 0.25 0.42 0.43 0.39 0.35 0.27 0.22 0.17 0.17 0.23 0.30 0.33 0.41 0.33 0.27 0.21 0.31 0.33 0.23 0.27 0.26 0.22 0.16
0.00 0.00 0.00 0.00 0.00 0.00 0.00 0.00 0.00 0.01 0.02 0.02 0.05 0.13 0.21 0.26 0.38 0.48 0.47 0.38 0.30 0.26 0.24 0.28 0.38 0.48 0.68 0.67 0.59 0.60 0.62 0.58 0.52 0.43 0.37 0.34 0.32 0.34 0.42 0.35 0.37 0.31 0.30 0.33 0.25 0.31 0.32 0.27 0.24
0.00 0.00 0.00 0.00 0.00 0.00 0.00 0.00 0.01 0.02 0.04 0.05 0.05 0.05 0.16 0.33 0.47 0.60 0.61 0.54 0.53 0.66 0.74 0.76 0.84 1.07 1.11 0.98 0.95 0.98 0.98 0.91 0.90 0.77 0.59 0.43 0.36 0.37 0.39 0.47 0.38 0.35 0.36 0.42 0.45 0.39 0.29 0.24 0.28
0.00 0.00 0.00 0.00 0.00 0.00 0.00 0.00 0.01 0.05 0.08 0.11 0.11 0.09 0.10 0.16 0.20 0.27 0.31 0.37 0.45 0.59 0.71 0.88 1.13 1.35 1.38 1.34 1.28 1.20 1.18 1.10 1.00 0.81 0.64 0.50 0.41 0.40 0.45 0.51 0.48 0.43 0.41 0.45 0.55 0.45 0.38 0.36 0.38
0.00 0.00 0.00 0.00 0.00 0.00 0.00 0.00 0.00 0.02 0.04 0.06 0.09 0.10 0.11 0.16 0.18 0.18 0.20 0.22 0.30 0.36 0.53 0.79 1.04 1.20 1.27 1.29 1.17 1.14 1.14 1.09 1.00 0.79 0.58 0.46 0.41 0.43 0.51 0.52 0.52 0.52 0.52 0.52 0.47 0.38 0.53 0.51 0.47
0.00 0.00 0.00 0.00 0.00 0.00 0.00 0.00 0.00 0.00 0.01 0.02 0.06 0.11 0.17 0.23 0.27 0.30 0.35 0.40 0.44 0.52 0.65 0.77 0.87 0.98 1.04 1.00 0.95 0.95 0.92 0.87 0.80 0.61 0.47 0.42 0.41 0.44 0.47 0.48 0.65 0.77 0.70 0.62 0.55 0.51 0.55 0.51 0.50
0.00 0.00 0.00 0.00 0.00 0.00 0.00 0.00 0.00 0.00 0.00 0.03 0.10 0.15 0.23 0.31 0.39 0.47 0.50 0.55 0.58 0.69 0.80 0.87 0.91 1.04 1.15 1.06 0.93 0.90 0.88 0.82 0.73 0.60 0.51 0.44 0.41 0.41 0.44 0.54 0.69 0.75 0.71 0.66 0.56 0.51 0.55 0.53 0.52
0.00 0.02 0.05 0.03 0.01 0.00 0.00 0.00 0.02 0.02 0.02 0.07 0.16 0.20 0.24 0.29 0.35 0.43 0.54 0.71 0.74 0.66 0.66 0.85 1.11 1.32 1.34 1.18 0.99 0.88 0.83 0.80 0.76 0.67 0.59 0.53 0.48 0.45 0.47 0.50 0.53 0.57 0.58 0.60 0.58 0.53 0.56 0.56 0.52
0.04 0.06 0.16 0.13 0.04 0.02 0.01 0.02 0.08 0.08 0.12 0.16 0.20 0.23 0.23 0.20 0.17 0.16 0.17 0.25 0.27 0.24 0.20 0.24 0.37 0.51 0.54 0.52 0.48 0.50 0.50 0.53 0.58 0.59 0.58 0.58 0.56 0.52 0.47 0.43 0.40 0.41 0.41 0.44 0.50 0.55 0.56 0.55 0.52
0.14 0.14 0.12 0.24 0.21 0.17 0.04 0.03 0.10 0.12 0.19 0.24 0.25 0.22 0.19 0.15 0.12 0.12 0.12 0.13 0.14 0.13 0.15 0.19 0.25 0.29 0.28 0.22 0.17 0.18 0.21 0.27 0.34 0.39 0.42 0.46 0.47 0.45 0.42 0.41 0.39 0.35 0.33 0.34 0.39 0.46 0.48 0.48 0.47
0.08 0.14 0.28 0.44 0.42 0.29 0.12 0.10 0.23 0.32 0.33 0.36 0.37 0.34 0.26 0.19 0.17 0.17 0.18 0.20 0.25 0.29 0.31 0.31 0.28 0.21 0.14 0.10 0.08 0.08 0.10 0.13 0.16 0.19 0.20 0.23 0.26 0.29 0.29 0.26 0.22 0.19 0.18 0.19 0.22 0.25 0.27 0.30 0.32
0.10 0.15 0.29 0.42 0.44 0.41 0.32 0.27 0.23 0.31 0.43 0.56 0.58 0.47 0.32 0.25 0.21 0.20 0.19 0.20 0.23 0.27 0.27 0.25 0.20 0.13 0.08 0.06 0.04 0.03 0.04 0.05 0.06 0.07 0.06 0.07 0.08 0.08 0.09 0.09 0.08 0.06 0.06 0.06 0.07 0.09 0.11 0.13 0.14
0.07 0.14 0.27 0.43 0.48 0.48 0.44 0.34 0.16 0.18 0.29 0.40 0.42 0.33 0.24 0.20 0.17 0.14 0.11 0.10 0.11 0.14 0.16 0.14 0.11 0.08 0.05 0.03 0.01 0.01 0.00 0.00 0.00 0.01 0.01 0.01 0.01 0.01 0.01 0.01 0.01 0.01 0.01 0.01 0.01 0.02 0.03 0.04 0.06